Notices

What's New in latest Release from April 7th, 2021:

- Updated Glossary, including Speed of Maximum Gust, and Total Hourly Precipitation

- Updated national and regional climate services offices contacts and prices information

- Addition of station inventory lists for 1981-2010, 1971-2000, and 1961-1990 Normals.

If you haven't already, please take our survey and provide feedback about our website: https://eccc.sondage-survey.ca/f/LanguageSelection.aspx?s=442ca660-fcf1-47c0-95a9-59707d6fd709

Hourly Data Report for July 25, 2018

OTTAWA INTL A
ONTARIO
Current Station Operator: NAVCAN

45°19'00.000" N
75°40'00.000" W
114.90 m
6106001
71628
YOW

Download Data

Hourly Data (July 2018)
Hourly Data Report for July 25, 2018
TIME
LST
Temp Definition
°C
Dew Point Definition
°C
Rel Hum Definition
%
Precip. Amount Definition
mm

Wind Dir Definition
10's deg

Wind Spd Definition
km/h
Visibility Definition
km
Stn Press Definition
kPa
Hmdx Definition


Wind Chill Definition


Weather Definition


00:00 22.3 21.7 96   17 10 16.1 100.06 31   Rain
01:00 22.5 21.6 95   16 18 16.1 99.99 31   Rain
02:00 22.3 21.5 96   18 17 16.1 99.95 31   Rain
03:00 22.2 21.4 95   18 10 16.1 99.94 31   Rain
04:00 19.6 19.1 96   34 13 8.1 99.91     Moderate Rain
05:00 19.5 19.0 97   3 9 8.1 99.93     Rain,Fog
06:00 20.1 19.6 96   4 9 16.1 99.91 27   Rain
07:00 21.4 20.9 97   17 13 12.9 99.85 30   Rain
08:00 21.9 21.2 96   17 14 16.1 99.85 30   Rain
09:00 22.2 21.6 96   17 15 16.1 99.83 31   Rain
10:00 22.5 21.7 95   17 15 9.7 99.79 32   Rain,Fog
11:00 22.8 21.9 95   18 12 16.1 99.76 32   Rain
12:00 22.4 21.8 97   22 15 4.8 99.72 32   Rain,Fog
13:00 22.8 22.2 96   20 4 12.9 99.66 32   Rain
14:00 23.1 22.2 95   22 8 24.1 99.67 33   Rain
15:00 23.8 22.2 91   24 7 24.1 99.60 33   LegendNANA
16:00 24.3 21.8 86   29 14 24.1 99.59 33   Mostly Cloudy
17:00 24.4 21.6 84   30 8 24.1 99.59 33   Rain
18:00 23.5 21.8 90   16 6 24.1 99.57 33   LegendNANA
19:00 23.0 21.5 91   21 5 24.1 99.59 32   Mostly Cloudy
20:00 21.7 21.1 96   18 5 24.1 99.58 30   LegendNANA
21:00 21.4 21.1 98   19 6 24.1 99.63 30   LegendNANA
22:00 21.2 20.9 98   19 7 8.1 99.62 30   Fog
23:00 21.2 21.0 98   23 4 16.1 99.59 30   LegendNANA

Notes on Data Quality.

Legend

  • E = Estimated
  • M = Missing
  • NA = Not Available*
  • [empty] = Indicates an unobserved value
Date modified: